Weather History for Holdrege, NE

Change the Weather History Date:

Monday, August 19, 2013

  Actual Average Record
Temperature  
Mean Temperature 77 °F -  
Max Temperature 90 °F 85 °F 103 °F (1948)
Min Temperature 64 °F 61 °F 44 °F (1967)
Cooling Degree Days 12    
Growing Degree Days 27 (Base 50)    
Moisture  
Dew Point 64 °F    
Average Humidity 68    
Maximum Humidity 91    
Minimum Humidity 41    
Precipitation  
Precipitation 0.00 in - - ()
Sea Level Pressure  
Sea Level Pressure 30.01 in    
Wind  
Wind Speed 9 mph (South)    
Max Wind Speed 16 mph    
Max Gust Speed 22 mph    
Visibility 10 miles    
Events      
Averages and records for this station are not official NWS values.
T = Trace of Precipitation, MM = Missing Value Source: NWS Daily Summary

Daily Weather History Graph

Daily Weather History Graph

Search for Another Location

Airport:

Trip Planner

Search our weather history database for the weather conditions in past years. The results will help you decide how hot, cold, wet, or windy it might be!

Date:

Astronomy

Aug. 19, 2013 Rise Set
Actual Time 6:52 AM CDT 8:28 PM CDT
Civil Twilight 6:23 AM CDT 8:57 PM CDT
Nautical Twilight 5:48 AM CDT 9:32 PM CDT
Astronomical Twilight 5:11 AM CDT 10:09 PM CDT
Moon 7:20 PM CDT (8/19) 5:13 AM CDT (8/19)
Length of Visible Light 14h 34m
Length of Day
13h 36m
Waxing Gibbous, 97% of the Moon is Illuminated
Aug 19
Waxing Gibbous
Aug 20
Full
Aug 28
Last Quarter
Sep 5
New
Sep 12
First Quarter

Hourly Weather History & Observations

Time (CDT) Temp. Heat Index Dew Point Humidity Pressure Visibility Wind Dir Wind Speed Gust Speed Precip Events Conditions
12:15 AM 68.0 °F - 62.8 °F 83% 30.08 in 10.0 mi South 10.4 mph - N/A   Clear
12:35 AM 67.8 °F - 62.6 °F 83% 30.07 in 10.0 mi South 9.2 mph - N/A   Clear
12:55 AM 67.8 °F - 62.6 °F 83% 30.07 in 10.0 mi South 10.4 mph - N/A   Clear
1:15 AM 67.5 °F - 62.6 °F 84% 30.07 in 10.0 mi South 9.2 mph - N/A   Clear
1:35 AM 67.3 °F - 62.6 °F 85% 30.06 in 10.0 mi South 9.2 mph - N/A   Clear
1:55 AM 67.3 °F - 62.6 °F 85% 30.06 in 10.0 mi South 12.7 mph - N/A   Clear
2:15 AM 67.5 °F - 62.6 °F 84% 30.06 in 10.0 mi South 9.2 mph - N/A   Clear
2:35 AM 67.3 °F - 62.6 °F 85% 30.06 in 10.0 mi South 6.9 mph - N/A   Clear
2:55 AM 67.3 °F - 62.6 °F 85% 30.04 in 10.0 mi South 10.4 mph - N/A   Clear
3:15 AM 67.5 °F - 62.6 °F 84% 30.04 in 10.0 mi South 10.4 mph - N/A   Clear
3:35 AM 67.5 °F - 62.2 °F 83% 30.04 in 10.0 mi South 9.2 mph - N/A   Clear
3:55 AM 67.3 °F - 62.1 °F 83% 30.04 in 10.0 mi South 9.2 mph - N/A   Clear
4:15 AM 66.9 °F - 61.9 °F 84% 30.03 in 10.0 mi South 8.1 mph - N/A   Clear
4:35 AM 66.6 °F - 61.9 °F 85% 30.02 in 10.0 mi South 8.1 mph - N/A   Clear
4:55 AM 66.4 °F - 61.9 °F 85% 30.02 in 10.0 mi South 6.9 mph - N/A   Clear
5:15 AM 66.4 °F - 62.1 °F 86% 30.02 in 10.0 mi South 10.4 mph - N/A   Clear
5:35 AM 66.2 °F - 61.9 °F 86% 30.02 in 10.0 mi South 9.2 mph - N/A   Clear
5:55 AM 65.5 °F - 61.7 °F 88% 30.02 in 10.0 mi SSW 6.9 mph - N/A   Clear
6:15 AM 65.3 °F - 61.7 °F 88% 30.02 in 10.0 mi South 6.9 mph - N/A   Clear
6:35 AM 64.8 °F - 61.5 °F 89% 30.03 in 10.0 mi South 6.9 mph - N/A   Clear
6:55 AM 64.6 °F - 61.3 °F 89% 30.03 in 10.0 mi South 8.1 mph - N/A   Clear
7:15 AM 64.4 °F - 61.3 °F 90% 30.04 in 7.0 mi South 5.8 mph - N/A   Clear
7:35 AM 64.2 °F - 61.2 °F 90% 30.04 in 7.0 mi South 6.9 mph - N/A   Clear
7:55 AM 64.2 °F - 61.5 °F 91% 30.04 in 5.0 mi South 6.9 mph - N/A   Clear
8:15 AM 65.5 °F - 62.6 °F 90% 30.04 in 7.0 mi South 5.8 mph - N/A   Clear
8:35 AM 67.1 °F - 63.0 °F 87% 30.05 in 10.0 mi South 5.8 mph - N/A   Clear
8:55 AM 68.4 °F - 63.5 °F 84% 30.05 in 10.0 mi South 6.9 mph - N/A   Clear
9:15 AM 69.8 °F - 63.5 °F 80% 30.06 in 10.0 mi South 5.8 mph - N/A   Clear
9:35 AM 71.4 °F - 63.5 °F 76% 30.06 in 10.0 mi South 10.4 mph - N/A   Clear
9:55 AM 73.2 °F - 63.5 °F 71% 30.06 in 10.0 mi South 10.4 mph - N/A   Clear
10:15 AM 74.3 °F - 63.9 °F 70% 30.06 in 10.0 mi South 8.1 mph - N/A   Clear
10:35 AM 75.6 °F - 63.7 °F 66% 30.06 in 10.0 mi SSW 10.4 mph - N/A   Clear
10:55 AM 76.3 °F - 63.5 °F 64% 30.06 in 10.0 mi South 10.4 mph - N/A   Clear
11:15 AM 77.2 °F - 63.9 °F 63% 30.05 in 10.0 mi South 10.4 mph - N/A   Clear
11:35 AM 78.4 °F - 64.4 °F 62% 30.05 in 10.0 mi SSW 10.4 mph - N/A   Clear
11:55 AM 79.0 °F - 64.2 °F 60% 30.04 in 10.0 mi South 12.7 mph - N/A   Clear
12:15 PM 80.4 °F 82.0 °F 64.0 °F 57% 30.04 in 10.0 mi South 12.7 mph 18.4 mph N/A   Clear
12:35 PM 81.7 °F 83.3 °F 64.6 °F 56% 30.02 in 10.0 mi SSW 15.0 mph - N/A   Clear
12:55 PM 82.2 °F 83.8 °F 64.4 °F 55% 30.03 in 10.0 mi South 12.7 mph 19.6 mph N/A   Clear
1:15 PM 83.3 °F 84.6 °F 64.0 °F 52% 30.02 in 10.0 mi South 11.5 mph 19.6 mph N/A   Clear
1:35 PM 84.6 °F 85.6 °F 63.7 °F 49% 30.02 in 10.0 mi South 10.4 mph 19.6 mph N/A   Clear
1:55 PM 84.7 °F 86.1 °F 64.0 °F 50% 30.02 in 10.0 mi South 12.7 mph - N/A   Clear
2:15 PM 85.6 °F 87.1 °F 64.2 °F 49% 30.01 in 10.0 mi South 11.5 mph 18.4 mph N/A   Clear
2:35 PM 86.4 °F 87.8 °F 64.4 °F 48% 30.01 in 10.0 mi South 16.1 mph 20.7 mph N/A   Clear
2:55 PM 87.3 °F 88.6 °F 64.0 °F 46% 30.00 in 10.0 mi South 11.5 mph 18.4 mph N/A   Clear
3:15 PM 87.6 °F 88.5 °F 63.1 °F 44% 30.00 in 10.0 mi South 15.0 mph - N/A   Clear
3:35 PM 88.7 °F 89.8 °F 63.7 °F 43% 29.99 in 10.0 mi South 15.0 mph 18.4 mph N/A   Clear
3:55 PM 88.9 °F 89.7 °F 63.3 °F 42% 29.98 in 10.0 mi South 13.8 mph 19.6 mph N/A   Clear
4:15 PM 89.6 °F 90.8 °F 63.5 °F 42% 29.97 in 10.0 mi South 15.0 mph 21.9 mph N/A   Clear
4:35 PM 90.1 °F 91.2 °F 63.5 °F 41% 29.97 in 10.0 mi South 15.0 mph 19.6 mph N/A   Clear
4:55 PM 89.2 °F 90.2 °F 63.7 °F 42% 29.97 in 10.0 mi South 11.5 mph 17.3 mph N/A   Clear
5:15 PM 90.5 °F 91.8 °F 63.5 °F 41% 29.97 in 10.0 mi South 12.7 mph - N/A   Clear
5:35 PM 89.6 °F 90.8 °F 63.5 °F 42% 29.97 in 10.0 mi South 8.1 mph - N/A   Clear
5:55 PM 89.8 °F 91.0 °F 64.0 °F 42% 29.97 in 10.0 mi South 8.1 mph - N/A   Clear
6:15 PM 89.6 °F 90.8 °F 64.0 °F 42% 29.96 in 10.0 mi South 8.1 mph - N/A   Clear
6:35 PM 88.9 °F 90.7 °F 64.8 °F 45% 29.96 in 10.0 mi South 6.9 mph - N/A   Clear
6:55 PM 87.8 °F 90.0 °F 66.0 °F 48% 29.96 in 10.0 mi South 5.8 mph - N/A   Clear
7:15 PM 86.5 °F 88.4 °F 65.5 °F 49% 29.96 in 10.0 mi South 5.8 mph - N/A   Clear
7:35 PM 84.9 °F 87.1 °F 66.2 °F 53% 29.96 in 10.0 mi South 6.9 mph - N/A   Clear
7:55 PM 82.6 °F 84.9 °F 66.6 °F 58% 29.96 in 10.0 mi South 6.9 mph - N/A   Clear
8:15 PM 80.1 °F 82.3 °F 66.7 °F 64% 29.96 in 10.0 mi SSE 5.8 mph - N/A   Clear
8:35 PM 77.4 °F - 67.1 °F 71% 29.96 in 10.0 mi SSE 6.9 mph - N/A   Clear
8:55 PM 77.2 °F - 65.3 °F 67% 29.96 in 10.0 mi South 5.8 mph - N/A   Clear
9:15 PM 76.3 °F - 65.3 °F 69% 29.97 in 10.0 mi South 6.9 mph - N/A   Clear
9:35 PM 75.2 °F - 65.3 °F 71% 29.97 in 10.0 mi South 6.9 mph - N/A   Clear
9:55 PM 73.8 °F - 65.5 °F 75% 29.98 in 10.0 mi South 6.9 mph - N/A   Clear
10:15 PM 73.0 °F - 65.3 °F 77% 29.97 in 10.0 mi South 6.9 mph - N/A   Clear
10:35 PM 73.6 °F - 65.3 °F 75% 29.97 in 10.0 mi South 6.9 mph - N/A   Clear
10:55 PM 74.5 °F - 64.8 °F 72% 29.97 in 10.0 mi South 9.2 mph - N/A   Clear
11:15 PM 74.5 °F - 64.8 °F 72% 29.97 in 10.0 mi South 10.4 mph - N/A   Clear
11:35 PM 74.1 °F - 64.6 °F 72% 29.97 in 10.0 mi South 9.2 mph - N/A   Clear
11:55 PM 73.4 °F - 64.4 °F 73% 29.97 in 10.0 mi South 10.4 mph - N/A   Clear